Simultaneous Nadir Overpasses (SNOs) Predictions

Prediction of SNOs between NPP and TERRA Satellite Orbit:

Table of predicted SNOs for the next 14.0 days since TLE Epoch: 10/19/2012
Index Date (NPP) Time (NPP) Lat,Lon (NPP) SZA (NPP ) Date (TERRA) Time (TERRA) Lat,Lon (TERRA) SZA (TERRA ) Distance(km) Time Diff (sec)
1 10/19/2012 20:01:34 -68.24, 57.87 101.52 10/19/2012 20:02:19 -68.23, 57.91 101.53 2.19 45
2 10/19/2012 20:52:17 68.07,-134.60 78.32 10/19/2012 20:51:47 68.06,-134.64 78.32 1.86 30
3 10/19/2012 21:42:40 -66.95, 34.06 102.76 10/19/2012 21:41:34 -67.01, 31.80 102.75 98.35 66
4 10/22/2012 11:28:01 68.99, 5.33 80.16 10/22/2012 11:29:09 68.91, 7.00 80.11 67.21 68
5 10/22/2012 12:18:30 -68.20, 173.69 100.61 10/22/2012 12:18:50 -68.20, 173.75 100.61 2.30 20
6 10/22/2012 13:09:13 68.02, -18.78 79.23 10/22/2012 13:08:18 68.03, -18.81 79.23 1.09 55
7 10/25/2012 03:44:44 68.26, 122.06 80.37 10/25/2012 03:45:51 68.24, 122.05 80.36 2.06 67
8 10/25/2012 04:35:25 -68.11, -70.43 99.77 10/25/2012 04:35:21 -68.14, -70.44 99.74 3.41 4
9 10/25/2012 05:26:04 67.72, 97.35 79.87 10/25/2012 05:24:52 67.80, 96.81 79.93 24.43 72
10 10/27/2012 20:01:38 68.19,-122.09 81.21 10/27/2012 20:02:20 68.21,-122.11 81.24 2.63 42
11 10/27/2012 20:52:20 -68.09, 45.36 98.88 10/27/2012 20:51:50 -68.11, 45.41 98.86 3.35 30
12 10/30/2012 11:28:03 -68.99,-174.69 97.13 10/30/2012 11:29:12 -68.89,-173.04 97.20 66.91 69
13 10/30/2012 12:18:33 68.13, -6.25
